Andover, VA

6:18 AM EDT on July 30, 2016 (GMT -0400)
Lonesome Pine

Weather History for KLNP - August, 2014

Change the Weather History Date:

Sunday, August 10, 2014

  Actual Average Record
Temperature  
Mean Temperature 68 °F -  
Max Temperature 71 °F 78 °F 89 °F (2010)
Min Temperature 64 °F 60 °F 55 °F (2008)
Cooling Degree Days 2    
Growing Degree Days 18 (Base 50)    
Moisture  
Dew Point 67 °F    
Average Humidity 95    
Maximum Humidity 100    
Minimum Humidity 88    
Precipitation  
Precipitation 0.00 in - - ()
Sea Level Pressure  
Sea Level Pressure 30.12 in    
Wind  
Wind Speed 4 mph (SSE)    
Max Wind Speed 9 mph    
Max Gust Speed -    
Visibility 10 miles    
Events Rain , Thunderstorm    
Averages and records for this station are not official NWS values.
T = Trace of Precipitation, MM = Missing Value Source: NWS Daily Summary

Daily Weather History Graph

Daily Weather History Graph

Search for Another Location

Airport or City:

Trip Planner

Search our weather history database for the weather conditions in past years. The results will help you decide how hot, cold, wet, or windy it might be!

Date:

Astronomy

Aug. 10, 2014 Rise Set
Actual Time 6:42 AM EDT 8:27 PM EDT
Civil Twilight 6:14 AM EDT 8:55 PM EDT
Nautical Twilight 5:40 AM EDT 9:29 PM EDT
Astronomical Twilight 5:04 AM EDT 10:05 PM EDT
Moon 8:15 PM EDT (8/10) 6:32 AM EDT (8/10)
Length of Visible Light 14h 40m
Length of Day
13h 44m
Full, 100% of the Moon is Illuminated
Aug 10
Full
Aug 10
Full
Aug 17
Last Quarter
Aug 25
New
Sep 2
First Quarter

Hourly Weather History & Observations

Time (EDT) Temp. Dew Point Humidity Pressure Visibility Wind Dir Wind Speed Gust Speed Precip Events Conditions
12:15 AM 68.0 °F 68.0 °F 100% 30.12 in 10.0 mi South 3.5 mph - N/A   Overcast
12:35 AM 68.0 °F 68.0 °F 100% 30.12 in 10.0 mi ESE 3.5 mph - N/A   Overcast
12:55 AM 66.2 °F 66.2 °F 100% 30.12 in 10.0 mi SE 3.5 mph - N/A   Overcast
1:15 AM 66.2 °F 66.2 °F 100% 30.12 in 10.0 mi Calm Calm - N/A   Overcast
1:35 AM 66.2 °F 66.2 °F 100% 30.11 in 10.0 mi SSE 4.6 mph - N/A   Overcast
1:55 AM 64.4 °F 64.4 °F 100% 30.11 in 10.0 mi Calm Calm - N/A   Overcast
2:15 AM 64.4 °F 64.4 °F 100% 30.10 in 10.0 mi Calm Calm - N/A   Mostly Cloudy
2:35 AM 64.4 °F 64.4 °F 100% 30.10 in 10.0 mi Calm Calm - N/A   Scattered Clouds
2:55 AM 64.4 °F 64.4 °F 100% 30.10 in 10.0 mi South 3.5 mph - N/A   Mostly Cloudy
3:15 AM 64.4 °F 64.4 °F 100% 30.10 in 10.0 mi South 4.6 mph - N/A   Scattered Clouds
3:35 AM 64.4 °F 64.4 °F 100% 30.09 in 10.0 mi SSE 8.1 mph - N/A   Clear
3:55 AM 64.4 °F 64.4 °F 100% 30.09 in 10.0 mi South 8.1 mph - N/A   Clear
4:15 AM 64.4 °F 64.4 °F 100% 30.09 in 10.0 mi South 5.8 mph - N/A   Clear
4:35 AM 64.4 °F 64.4 °F 100% 30.09 in 10.0 mi South 3.5 mph - N/A   Clear
4:55 AM 64.4 °F 64.4 °F 100% 30.09 in 10.0 mi ESE 3.5 mph - N/A   Clear
5:15 AM 64.4 °F 64.4 °F 100% 30.09 in 10.0 mi ESE 3.5 mph - N/A   Clear
5:35 AM 64.4 °F 64.4 °F 100% 30.09 in 10.0 mi SE 4.6 mph - N/A   Clear
5:55 AM 64.4 °F 64.4 °F 100% 30.09 in 10.0 mi SSE 4.6 mph - N/A   Clear
6:15 AM 64.4 °F 64.4 °F 100% 30.11 in 10.0 mi South 5.8 mph - N/A   Clear
6:35 AM 64.4 °F 64.4 °F 100% 30.11 in 10.0 mi SSE 4.6 mph - N/A   Mostly Cloudy
6:55 AM 66.2 °F 64.4 °F 94% 30.11 in 10.0 mi South 3.5 mph - N/A   Overcast
7:15 AM 66.2 °F 64.4 °F 94% 30.12 in 10.0 mi South 4.6 mph - N/A   Overcast
7:35 AM 66.2 °F 64.4 °F 94% 30.12 in 10.0 mi SSE 5.8 mph - N/A   Mostly Cloudy
7:55 AM 66.2 °F 64.4 °F 94% 30.12 in 10.0 mi SSE 4.6 mph - N/A   Mostly Cloudy
8:15 AM 68.0 °F 64.4 °F 88% 30.12 in 10.0 mi SSE 5.8 mph - N/A   Scattered Clouds
8:35 AM 68.0 °F 64.4 °F 88% 30.13 in 10.0 mi SSE 5.8 mph - N/A   Scattered Clouds
8:55 AM 68.0 °F 64.4 °F 88% 30.14 in 10.0 mi SSE 5.8 mph - N/A   Mostly Cloudy
9:15 AM 69.8 °F 66.2 °F 88% 30.14 in 10.0 mi SSE 3.5 mph - N/A Thunderstorm Scattered Clouds
9:35 AM 69.8 °F 66.2 °F 88% 30.14 in 10.0 mi SE 6.9 mph - N/A Thunderstorm Scattered Clouds
9:50 AM 69.8 °F 66.2 °F 88% 30.14 in 10.0 mi SSE 4.6 mph - N/A   Mostly Cloudy
10:15 AM 71.6 °F 68.0 °F 88% 30.14 in 10.0 mi South 9.2 mph - N/A Thunderstorm Overcast
10:35 AM 71.6 °F 68.0 °F 88% 30.14 in 10.0 mi South 8.1 mph - N/A   Overcast
10:55 AM 71.6 °F 68.0 °F 88% 30.15 in 10.0 mi South 5.8 mph - N/A Thunderstorm Mostly Cloudy
11:15 AM 71.6 °F 68.0 °F 88% 30.14 in 10.0 mi SSE 5.8 mph - N/A Thunderstorm Thunderstorm
11:35 AM 71.6 °F 68.0 °F 88% 30.14 in 10.0 mi South 4.6 mph - N/A Thunderstorm Thunderstorm
11:55 AM 69.8 °F 68.0 °F 94% 30.15 in 10.0 mi SSE 3.5 mph - N/A   Mostly Cloudy
12:15 PM 69.8 °F 68.0 °F 94% 30.16 in 10.0 mi SSE 5.8 mph - N/A   Overcast
12:35 PM 71.6 °F 68.0 °F 88% 30.16 in 10.0 mi Calm Calm - N/A   Overcast
12:55 PM 71.6 °F 68.0 °F 88% 30.16 in 10.0 mi Calm Calm - N/A   Overcast
1:15 PM 69.8 °F 68.0 °F 94% 30.15 in 10.0 mi SSE 3.5 mph - N/A   Overcast
1:35 PM 69.8 °F 68.0 °F 94% 30.15 in 10.0 mi South 8.1 mph - N/A   Overcast
1:55 PM 69.8 °F 68.0 °F 94% 30.15 in 10.0 mi SSE 9.2 mph - N/A   Overcast
2:15 PM 68.0 °F 68.0 °F 100% 30.15 in 10.0 mi SSE 4.6 mph - N/A   Overcast
2:35 PM 68.0 °F 68.0 °F 100% 30.15 in 10.0 mi SSE 4.6 mph - N/A Rain , Thunderstorm Rain
2:55 PM 69.8 °F 68.0 °F 94% 30.14 in 10.0 mi SSE 6.9 mph - N/A Rain Light Rain
3:15 PM 69.8 °F 69.8 °F 100% 30.14 in 10.0 mi Calm Calm - N/A   Overcast
3:35 PM 69.8 °F 69.8 °F 100% 30.12 in 10.0 mi South 8.1 mph - N/A   Overcast
3:55 PM 71.6 °F 69.8 °F 94% 30.12 in 10.0 mi SSE 5.8 mph - N/A   Overcast
4:15 PM 69.8 °F 68.0 °F 94% 30.12 in 10.0 mi SSE 4.6 mph - N/A   Overcast
4:35 PM 71.6 °F 69.8 °F 94% 30.12 in 10.0 mi SSE 6.9 mph - N/A   Overcast
4:55 PM 71.6 °F 69.8 °F 94% 30.11 in 10.0 mi SSE 4.6 mph - N/A   Overcast
5:15 PM 69.8 °F 68.0 °F 94% 30.11 in 10.0 mi South 4.6 mph - N/A   Overcast
5:35 PM 69.8 °F 68.0 °F 94% 30.12 in 10.0 mi SSE 4.6 mph - N/A   Overcast
5:55 PM 69.8 °F 68.0 °F 94% 30.11 in 10.0 mi SSE 5.8 mph - N/A   Overcast
6:15 PM 69.8 °F 68.0 °F 94% 30.10 in 10.0 mi Calm Calm - N/A   Overcast
6:35 PM 69.8 °F 68.0 °F 94% 30.11 in 10.0 mi Calm Calm - N/A   Overcast
6:55 PM 69.8 °F 68.0 °F 94% 30.11 in 10.0 mi South 5.8 mph - N/A   Overcast
7:35 PM 71.6 °F 68.0 °F 88% 30.10 in 10.0 mi SSE 4.6 mph - N/A   Overcast
7:55 PM 69.8 °F 68.0 °F 94% 30.10 in 10.0 mi South 5.8 mph - N/A   Overcast
8:15 PM 69.8 °F 68.0 °F 94% 30.10 in 10.0 mi South 3.5 mph - N/A   Overcast
8:35 PM 69.8 °F 68.0 °F 94% 30.09 in 10.0 mi South 4.6 mph - N/A   Overcast
8:55 PM 69.8 °F 68.0 °F 94% 30.09 in 10.0 mi South 3.5 mph - N/A   Overcast
9:15 PM 69.8 °F 68.0 °F 94% 30.09 in 10.0 mi SSE 4.6 mph - N/A   Overcast
9:35 PM 69.8 °F 68.0 °F 94% 30.09 in 10.0 mi South 8.1 mph - N/A   Scattered Clouds
9:55 PM 68.0 °F 68.0 °F 100% 30.10 in 10.0 mi South 8.1 mph - N/A   Scattered Clouds
10:15 PM 68.0 °F 68.0 °F 100% 30.11 in 10.0 mi South 9.2 mph - N/A   Scattered Clouds
10:35 PM 68.0 °F 66.2 °F 94% 30.11 in 10.0 mi South 8.1 mph - N/A   Scattered Clouds
10:55 PM 68.0 °F 66.2 °F 94% 30.11 in 10.0 mi SSE 9.2 mph - N/A   Mostly Cloudy
11:15 PM 68.0 °F 66.2 °F 94% 30.11 in 10.0 mi SSE 6.9 mph - N/A   Mostly Cloudy
11:35 PM 68.0 °F 64.4 °F 88% 30.11 in 10.0 mi South 8.1 mph - N/A   Overcast
11:55 PM 68.0 °F 64.4 °F 88% 30.12 in 10.0 mi SSE 9.2 mph - N/A   Overcast